SCP
1 1 1 1 1 1 1 1 1 1 1 1 1 1 1 1 1 1 1 1 1 1 1 1 1 1 2 2 2 2 3 3 3 2 1 1 1 1 1 1 1 1 1
1 1 1 1 1 1 2 2 2 1 1 1 1 1 1 1 1 1 1 1 1 1 1 1 1 1 2 2 2 3 3 2 2 2 1 1 1 1 1 1 1 1 1
1 1 2 2 1 2 3 3 3 2 1 1 1 1 1 1 1 1 1 1 1 1 1 1 1 1 1 2 2 2 3 2 2 1 1 1 1 1 1 1 1 1 1
2 2 3 3 3 3 3 3 3 2 1 1 1 1 1 1 1 1 1 1 1 1 1 1 1 1 1 1 2 2 2 2 2 2 2 2 2 1 1 1 1 1 1
2 3 4 4 4 4 3 3 2 2 1 1 1 1 1 1 1 1 1 1 1 1 1 1 1 1 1 1 1 2 2 2 2 2 2 2 2 1 1 1 1 1 1
2 2 3 4 4 3 3 2 2 2 2 2 1 1 1 1 1 1 1 1 1 1 1 1 1 1 1 1 1 2 2 2 2 2 2 2 1 1 1 1 1 1 1
1 2 2 3 3 3 3 3 3 3 2 2 1 1 1 1 1 1 1 2 2 1 1 1 1 1 1 1 1 2 2 2 2 2 2 2 2 2 2 2 2 2 1
2 2 3 3 3 3 3 3 3 3 3 2 2 2 1 1 1 1 2 2 1 1 1 1 1 1 1 1 1 2 2 2 2 2 2 2 2 2 2 2 2 2 2
2 2 2 2 3 3 3 3 3 4 3 3 2 2 2 2 1 2 2 2 1 1 1 1 1 1 1 1 2 2 2 2 2 2 2 3 3 3 3 3 3 2 2
2 2 2 2 2 2 2 3 4 4 3 3 3 2 2 2 2 2 1 1 1 1 1 2 2 2 2 2 2 2 2 2 2 2 2 3 3 3 3 3 3 3 2
2 2 2 2 2 2 2 3 4 4 4 3 3 3 2 2 2 2 1 1 1 2 2 3 3 2 2 2 2 2 2 2 2 1 2 2 2 3 3 3 3 3 3
3 3 3 3 3 3 4 4 5 4 4 4 4 3 2 2 2 1 1 1 2 2 3 4 4 3 3 3 3 2 2 2 2 1 2 2 2 2 3 3 3 3 3
4 5 6 6 6 6 6 6 5 4 4 3 3 2 2 2 1 1 2 2 2 3 3 4 4 4 3 3 3 2 2 2 1 1 2 2 2 2 3 3 3 3 3
7 8 9 10 10 10 9 7 5 4 3 3 2 2 2 2 2 2 2 2 2 3 3 3 4 3 3 3 2 2 2 2 2 2 2 2 2 2 3 3 2 2 2
8 9 11 12 13 11 9 6 4 3 3 3 3 3 2 2 2 2 2 2 3 3 3 3 3 3 2 2 2 2 2 2 2 2 2 2 2 2 2 2 2 2 2
9 10 12 12 12 10 7 5 4 4 4 3 4 4 4 3 3 2 3 3 3 3 3 2 2 2 2 1 1 1 1 2 2 2 2 2 2 2 2 1 1 1 2
8 10 11 11 9 8 5 4 4 4 4 4 4 5 4 4 3 3 4 4 4 4 3 3 2 2 2 1 1 1 1 2 2 2 3 3 3 3 2 2 1 1 1
8 9 9 8 7 6 5 4 4 4 4 5 5 5 4 4 4 4 5 5 5 5 4 3 3 3 2 2 1 1 1 2 2 3 3 3 3 3 2 2 2 2 2
7 7 6 6 5 5 5 4 4 4 4 5 5 5 4 4 4 4 5 6 5 5 4 4 3 3 3 2 1 1 2 3 3 3 3 3 2 2 2 3 3 2 2
6 5 5 5 5 5 5 5 4 4 4 4 4 4 4 4 4 4 5 5 5 5 4 4 4 4 3 2 1 1 2 3 4 3 2 2 1 1 1 2 2 2 1
4 4 4 4 4 4 4 4 4 4 3 3 3 3 4 4 4 4 4 5 5 5 5 5 4 4 3 2 1 1 2 3 3 2 2 1 1 0 0 1 1 1 1
4 4 4 4 4 3 4 4 4 4 3 3 4 4 4 4 4 4 5 5 6 6 6 5 4 3 2 1 1 1 1 2 2 1 1 1 0 0 0 0 0 0 0
6 5 5 4 4 3 4 4 4 4 4 4 4 4 4 4 4 5 5 6 6 6 5 5 3 2 1 1 1 0 0 1 1 1 1 0 0 0 0 0 0 0 0
6 5 5 4 4 3 3 3 3 3 3 4 4 3 3 3 3 4 4 6 6 5 4 3 3 3 2 1 1 0 0 0 0 0 0 0 0 0 0 0 0 0 0
4 4 4 3 3 3 2 2 2 2 3 3 2 2 2 2 2 2 3 3 3 3 2 2 3 3 2 1 1 0 0 0 0 0 0 0 0 0 0 0 0 0 0
3 3 3 2 2 2 2 2 2 2 2 2 2 1 1 1 1 1 1 1 1 1 1 1 2 2 2 1 1 0 0 0 0 0 0 0 0 0 0 1 1 1 1
Wind_Speed
5 4 4 3 3 2 2 2 1 0 1 1 2 1 1 1 1 0 1 1 1 1 1 2 0 2 1 1 2 2 2 2 1 2 2 2 4 3 3 3 2 3 3
5 5 4 3 3 2 2 3 2 0 1 1 1 2 2 2 1 1 1 1 1 1 1 1 2 1 1 1 2 2 2 1 1 2 2 2 2 3 2 3 3 2 3
5 6 5 4 3 3 2 2 1 1 1 1 1 1 1 1 1 1 0 1 1 1 1 1 2 2 2 1 2 2 2 2 1 1 2 2 1 1 2 3 2 2 2
5 5 5 5 4 3 3 2 2 1 0 0 1 2 2 1 1 2 1 1 1 1 1 1 1 2 2 1 2 1 2 2 2 1 2 3 3 2 1 2 2 2 2
5 5 5 4 4 3 3 3 2 1 1 0 0 2 2 2 1 1 1 1 1 1 1 1 1 1 2 2 2 2 3 2 2 2 1 2 2 4 3 2 1 2 2
5 5 5 5 4 4 3 3 3 2 1 0 0 1 2 2 3 2 1 1 0 1 1 1 1 2 1 1 2 2 2 2 3 3 2 2 2 3 3 3 2 2 1
5 5 6 6 5 4 3 3 3 2 1 1 0 1 1 2 2 2 1 2 1 1 2 2 2 2 2 2 2 1 2 2 2 3 3 3 3 3 3 3 3 3 2
5 5 6 6 5 5 4 3 3 2 1 1 0 0 1 2 1 1 2 1 2 2 2 1 1 2 2 2 2 2 2 2 3 3 3 3 3 3 3 3 3 3 2
6 6 6 6 6 5 5 4 4 2 1 1 1 1 0 1 2 1 1 1 1 1 1 1 1 1 1 2 3 2 3 2 3 2 2 3 2 3 3 3 3 4 4
6 6 5 5 5 5 5 4 4 3 2 2 1 1 1 0 1 1 1 1 1 1 1 1 1 1 1 1 2 2 2 2 2 2 3 3 2 2 3 3 3 3 4
6 6 5 5 5 5 5 4 4 3 2 1 1 1 1 0 0 1 1 1 0 0 0 1 1 2 2 1 2 3 2 3 3 3 2 3 4 3 3 2 3 3 3
6 6 6 5 5 4 4 4 4 3 2 2 1 1 1 1 0 1 1 1 0 0 0 1 1 2 2 2 2 3 3 3 3 3 3 3 3 3 3 3 3 3 3
6 6 6 5 4 4 4 3 3 3 2 2 2 1 1 1 0 1 1 1 1 1 1 1 2 2 2 3 3 3 4 3 3 3 3 3 3 3 3 3 3 2 2
6 5 5 5 4 4 3 3 2 2 2 2 2 2 1 1 0 0 1 1 1 1 1 2 2 3 3 3 4 4 4 4 4 3 3 3 3 3 3 3 3 3 3
5 5 4 5 4 4 4 3 2 2 2 2 1 1 1 1 0 0 1 1 1 1 1 2 2 3 2 3 4 5 4 4 4 3 3 3 2 4 4 4 3 3 3
6 5 5 5 5 4 4 3 3 2 2 2 1 1 0 1 0 0 0 0 1 1 2 2 2 3 3 5 6 6 5 4 4 3 3 3 1 1 1 3 4 5 4
6 6 5 5 4 4 4 3 3 2 2 2 1 1 0 0 0 1 0 1 1 1 2 2 2 3 3 5 5 6 5 4 3 3 4 3 2 2 2 2 2 3 4
6 5 5 5 4 4 4 4 3 3 2 1 1 0 1 1 1 1 1 1 1 1 2 2 2 3 3 5 5 6 5 4 3 3 3 3 3 3 4 4 4 3 3
5 5 4 4 4 4 5 4 3 3 2 1 1 0 0 1 1 1 1 1 1 2 2 2 2 3 3 4 5 6 4 3 3 3 3 3 3 3 4 4 4 4 4
5 5 5 5 5 4 4 4 3 2 2 2 1 1 1 1 1 1 2 2 2 3 3 2 2 3 3 3 3 5 3 3 3 3 2 1 3 3 3 5 5 5 5
6 5 5 4 4 4 4 3 2 2 2 1 1 1 1 1 1 1 2 2 2 3 3 3 2 2 2 1 1 3 3 4 4 3 3 2 3 3 4 6 5 6 7
6 5 5 4 4 4 3 3 2 1 1 1 1 1 1 2 1 1 2 2 3 3 2 3 3 1 1 1 1 1 3 5 4 4 4 3 3 4 5 5 4 6 7
5 5 5 4 4 3 3 2 1 1 0 0 0 0 1 1 2 2 2 2 2 3 2 2 2 2 1 0 2 2 3 3 4 3 4 4 4 5 5 3 4 5 5
5 5 5 5 4 3 2 2 1 1 1 1 1 2 2 2 1 2 2 2 2 2 2 3 3 2 2 2 2 1 1 2 3 3 3 4 5 5 4 3 3 3 3
4 4 5 4 4 3 2 1 1 1 2 2 2 3 2 1 1 1 2 3 2 3 4 4 3 3 3 4 5 5 3 4 3 4 4 3 2 3 3 3 2 3 3
4 4 4 4 4 4 3 1 1 2 2 3 3 2 2 1 2 2 1 1 1 1 2 3 4 3 2 3 5 5 5 5 5 5 4 3 3 4 4 4 3 3 3
Wind_Direction
159 160 160 159 158 160 164 169 229 335 285 297 300 295 286 297 330 340 13 312 294 282 273 297 247 270 271 276 265 254 228 231 237 256 247 226 223 213 211 218 220 206 208
174 175 177 177 171 166 175 171 176 184 283 346 318 315 314 302 335 356 15 326 309 294 247 294 279 283 272 257 263 247 263 232 205 253 258 231 208 205 200 199 202 210 204
192 186 185 188 178 169 167 152 131 122 8 334 287 300 263 273 309 332 352 0 333 301 330 320 307 298 286 287 275 259 250 262 232 270 295 288 284 272 195 208 203 211 222
186 184 185 185 182 172 159 145 140 129 104 238 306 299 307 322 337 322 1 347 340 319 298 293 297 292 296 296 273 287 275 267 257 239 265 306 322 278 243 209 188 197 214
179 179 177 171 170 163 157 147 144 142 154 237 236 276 305 314 330 338 22 325 347 313 322 305 298 287 291 307 314 319 290 276 278 272 281 279 271 269 268 263 244 227 220
171 173 169 165 165 161 157 150 143 145 159 194 344 310 319 331 342 337 338 296 322 330 16 341 326 302 306 292 289 296 279 296 304 294 289 283 286 287 277 269 259 257 246
163 162 164 163 160 158 154 141 133 142 160 174 240 281 297 292 305 309 315 318 346 6 23 359 344 335 331 311 304 299 317 300 289 281 285 289 289 292 286 279 275 272 259
153 157 159 161 160 161 154 139 134 139 139 141 158 271 273 277 296 316 327 335 343 14 24 6 359 349 335 322 318 306 317 314 289 292 299 288 294 287 279 282 287 272 258
151 153 153 156 160 161 153 153 147 146 145 130 130 120 336 331 334 319 300 18 28 9 36 22 28 9 352 335 319 334 331 331 308 298 274 274 286 288 282 278 277 276 273
147 145 145 148 150 151 147 149 146 154 163 157 169 131 146 214 275 302 19 24 13 6 349 332 352 338 316 295 295 301 331 320 318 305 307 292 288 285 283 275 273 276 275
145 142 139 142 144 143 142 147 149 153 149 135 124 77 82 79 46 43 52 78 21 326 322 322 308 303 303 293 286 302 308 302 309 308 296 294 305 300 289 281 283 278 271
145 142 139 141 145 147 146 150 155 152 146 136 140 128 109 91 63 59 22 20 42 331 11 294 295 297 304 303 294 294 305 301 302 307 309 300 296 297 296 297 288 285 279
150 148 142 141 146 146 147 152 159 148 142 136 138 116 98 94 75 44 10 346 319 330 328 305 315 317 316 306 296 293 295 295 294 298 302 305 302 295 304 296 297 288 276
154 155 151 146 144 147 146 151 148 138 135 137 128 109 83 57 22 31 347 334 330 341 334 333 325 319 315 308 298 291 288 288 291 295 297 298 303 302 300 289 290 289 283
160 157 155 141 143 142 143 141 131 133 133 143 132 106 86 69 39 42 22 14 351 350 356 337 330 317 303 320 316 297 286 289 292 299 301 308 337 347 325 317 320 300 280
169 162 158 151 149 145 145 143 144 138 144 152 141 108 99 121 122 246 282 5 350 344 347 343 325 317 346 11 348 317 297 296 297 302 303 297 268 346 346 339 331 317 291
169 167 163 160 153 150 147 146 138 133 134 141 140 137 174 170 222 259 245 285 297 319 331 328 325 331 11 11 348 326 298 294 304 307 305 305 347 331 318 325 275 279 292
166 159 159 156 154 145 138 133 128 126 125 123 127 134 233 242 243 244 271 293 309 317 316 318 327 332 4 13 345 327 293 300 308 308 301 305 322 341 335 312 308 298 281
155 154 157 149 135 128 124 128 128 118 112 87 56 22 291 296 293 284 289 293 300 301 296 311 326 327 343 12 346 325 306 317 311 310 315 311 313 14 344 305 305 306 296
147 147 147 137 126 122 126 134 126 105 75 54 35 24 3 326 311 309 301 298 287 288 294 311 314 312 324 10 348 329 308 320 308 304 299 37 348 359 328 297 295 295 301
145 143 142 136 128 127 130 133 118 94 64 50 37 29 3 312 303 318 311 302 300 306 303 303 299 305 327 18 29 336 314 317 307 307 308 7 45 348 315 297 296 302 300
146 145 142 131 130 137 141 135 111 79 66 52 34 5 309 302 22 338 306 298 292 277 284 291 298 306 310 17 45 290 288 311 308 308 319 356 15 317 295 289 306 299 287
150 151 146 136 135 143 152 152 128 109 74 312 319 314 309 306 309 290 278 270 271 286 301 299 300 312 328 83 141 223 256 274 292 316 341 321 295 286 274 251 272 277 276
154 155 152 148 149 156 164 161 150 169 204 227 242 242 240 247 265 290 296 301 305 307 305 308 310 318 319 336 350 311 271 247 261 294 284 251 250 261 287 288 267 274 293
162 164 162 158 157 157 162 170 166 198 230 234 236 247 248 257 271 282 323 315 338 339 312 315 312 315 322 358 343 319 315 316 322 307 286 290 302 303 309 310 311 303 299
164 168 170 169 167 168 169 177 196 214 236 239 241 248 255 261 263 260 234 169 270 212 241 267 291 313 329 311 303 298 290 286 287 284 289 303 310 313 316 317 316 310 310